Weather History for Alice, TX

Change the Weather History Date:

Tuesday, January 29, 2013

  Actual Average Record
Temperature  
Mean Temperature 80 °F -  
Max Temperature 91 °F 67 °F 91 °F (2013)
Min Temperature 66 °F 46 °F 35 °F (1997)
Cooling Degree Days 16    
Growing Degree Days 30 (Base 50)    
Moisture  
Dew Point 62 °F    
Average Humidity 60    
Maximum Humidity 83    
Minimum Humidity 30    
Precipitation  
Precipitation 0.00 in - - ()
Sea Level Pressure  
Sea Level Pressure 29.71 in    
Wind  
Wind Speed 20 mph (South)    
Max Wind Speed 30 mph    
Max Gust Speed 43 mph    
Visibility 10 miles    
Events      
Averages and records for this station are not official NWS values.
T = Trace of Precipitation, MM = Missing Value Source: NWS Daily Summary

Daily Weather History Graph

Daily Weather History Graph

Search for Another Location

Airport:

Trip Planner

Search our weather history database for the weather conditions in past years. The results will help you decide how hot, cold, wet, or windy it might be!

Date:

Astronomy

Jan. 29, 2013 Rise Set
Actual Time 7:20 AM CST 6:10 PM CST
Civil Twilight 6:55 AM CST 6:35 PM CST
Nautical Twilight 6:27 AM CST 7:03 PM CST
Astronomical Twilight 5:59 AM CST 7:31 PM CST
Moon 8:47 PM CST (1/29) 8:35 AM CST (1/29)
Length of Visible Light 11h 39m
Length of Day
10h 50m
Waning Gibbous, 93% of the Moon is Illuminated
Jan 29
Waning Gibbous
Feb 3
Last Quarter
Feb 10
New
Feb 17
First Quarter
Feb 25
Full

Hourly Weather History & Observations

Time (CST) Temp. Heat Index Dew Point Humidity Pressure Visibility Wind Dir Wind Speed Gust Speed Precip Events Conditions
12:53 AM 73.9 °F - 66.9 °F 79% 29.84 in 10.0 mi SSE 19.6 mph 26.5 mph N/A   Overcast
1:53 AM 73.9 °F - 68.0 °F 82% 29.83 in 10.0 mi South 16.1 mph - N/A   Overcast
2:08 AM 73.4 °F - 68.0 °F 83% 29.83 in 10.0 mi South 19.6 mph 25.3 mph N/A   Overcast
2:53 AM 75.0 °F - 66.9 °F 76% 29.81 in 10.0 mi South 17.3 mph 26.5 mph N/A   Overcast
3:53 AM 75.0 °F - 66.0 °F 73% 29.80 in 10.0 mi South 20.7 mph 27.6 mph N/A   Overcast
4:42 AM 75.2 °F - 66.2 °F 73% 29.78 in 10.0 mi South 19.6 mph 31.1 mph N/A   Overcast
4:53 AM 75.0 °F - 66.0 °F 73% 29.77 in 10.0 mi South 17.3 mph 27.6 mph N/A   Overcast
5:53 AM 75.2 °F - 66.2 °F 73% 29.77 in 10.0 mi South 23.0 mph 29.9 mph N/A   Mostly Cloudy
6:18 AM 75.2 °F - 66.2 °F 73% 29.76 in 10.0 mi South 20.7 mph 34.5 mph N/A   Mostly Cloudy
6:53 AM 73.9 °F - 66.0 °F 76% 29.76 in 10.0 mi South 24.2 mph 32.2 mph N/A   Scattered Clouds
7:53 AM 73.9 °F - 66.0 °F 76% 29.75 in 10.0 mi South 19.6 mph 29.9 mph N/A   Clear
8:53 AM 75.0 °F - 66.0 °F 73% 29.75 in 10.0 mi South 24.2 mph 35.7 mph N/A   Partly Cloudy
9:15 AM 77.0 °F - 66.2 °F 69% 29.76 in 10.0 mi South 24.2 mph 35.7 mph N/A   Mostly Cloudy
9:32 AM 77.0 °F - 66.2 °F 69% 29.76 in 10.0 mi South 19.6 mph 36.8 mph N/A   Scattered Clouds
9:53 AM 79.0 °F - 66.9 °F 66% 29.75 in 10.0 mi South 24.2 mph 32.2 mph N/A   Mostly Cloudy
10:22 AM 78.8 °F - 66.2 °F 65% 29.75 in 10.0 mi South 29.9 mph 42.6 mph N/A   Scattered Clouds
10:53 AM 81.0 °F 83.0 °F 66.0 °F 60% 29.72 in 10.0 mi South 29.9 mph 35.7 mph N/A   Clear
11:53 AM 84.9 °F 87.1 °F 66.0 °F 53% 29.70 in 10.0 mi South 27.6 mph 35.7 mph N/A   Clear
12:53 PM 88.0 °F 89.6 °F 64.9 °F 46% 29.65 in 10.0 mi South 19.6 mph 31.1 mph N/A   Clear
1:53 PM 91.0 °F 91.9 °F 63.0 °F 39% 29.61 in 10.0 mi SSW 15.0 mph 26.5 mph N/A   Clear
2:53 PM 89.1 °F 88.8 °F 60.1 °F 38% 29.60 in 10.0 mi SW 15.0 mph 23.0 mph N/A   Clear
3:53 PM 89.1 °F 88.2 °F 59.0 °F 36% 29.57 in 10.0 mi SSW 17.3 mph - N/A   Clear
4:53 PM 89.1 °F 88.2 °F 59.0 °F 36% 29.56 in 10.0 mi SSW 15.0 mph - N/A   Clear
5:53 PM 86.0 °F 84.9 °F 57.0 °F 37% 29.56 in 10.0 mi South 11.5 mph - N/A   Clear
6:53 PM 84.0 °F 85.8 °F 64.9 °F 53% 29.57 in 10.0 mi South 16.1 mph - N/A   Clear
7:53 PM 80.1 °F 82.1 °F 66.0 °F 62% 29.58 in 10.0 mi South 20.7 mph 26.5 mph N/A   Clear
8:53 PM 80.1 °F 82.1 °F 66.0 °F 62% 29.67 in 10.0 mi WNW 19.6 mph 25.3 mph N/A   Scattered Clouds
9:00 PM 80.6 °F 81.5 °F 60.8 °F 51% 29.69 in 10.0 mi NNW 20.7 mph 32.2 mph N/A   Mostly Cloudy
9:53 PM 72.0 °F - 39.0 °F 30% 29.71 in 10.0 mi North 16.1 mph 23.0 mph N/A   Clear
10:53 PM 70.0 °F - 37.0 °F 30% 29.74 in 10.0 mi North 9.2 mph - N/A   Clear
11:53 PM 66.9 °F - 37.9 °F 34% 29.76 in 10.0 mi North 9.2 mph - N/A   Partly Cloudy